Tracking 29892 objects as of 21-Nov-2024
HD Live streaming from Space Station
objects crossing your sky now

COSMOS 2251 DEB

Track COSMOS 2251 DEB now!
10-day predictions


NORAD ID: 34317
Int'l Code: 1993-036NP
Perigee: 777.1 km
Apogee: 1,278.2 km
Inclination: 73.9 °
Period: 105.6 minutes
Semi major axis: 7398 km
RCS: 0.0266 m2 (small)
Launch date: June 16, 1993
Source: Commonwealth of Independent States (former USSR) (CIS)
Launch site: PLESETSK MISSILE AND SPACE COMPLEX (PKMTR)

Note: This is SATELLITE DEBRIS
Your satellite tracking list
Your tracking list is empty




NASA's NSSDC Master Catalog

Two Line Element Set (TLE):
1 34317U 93036NP  24325.98031045  .00001440  00000-0  12408-2 0  9991
2 34317  73.9240 312.0915 0338685  14.5271   5.1228 13.64187580783839
Source of the keplerian elements: AFSPC